Year,Month,Day,Hour,Minute,Value (Times are PST for temperature in C)
2002,06,03,00,00,12.60
2002,06,03,00,01,12.60
2002,06,03,00,02,12.60
2002,06,03,00,03,12.60
2002,06,03,00,04,12.60
2002,06,03,00,05,12.60
2002,06,03,00,06,12.60
2002,06,03,00,07,12.50
2002,06,03,00,08,12.50
2002,06,03,00,09,12.50
2002,06,03,00,10,12.50
2002,06,03,00,11,12.50
2002,06,03,00,12,12.40
2002,06,03,00,13,12.40
2002,06,03,00,14,12.40
2002,06,03,00,15,12.40
2002,06,03,00,16,12.40
2002,06,03,00,17,12.40
2002,06,03,00,18,12.40
2002,06,03,00,19,12.30
2002,06,03,00,20,12.30
2002,06,03,00,21,12.30
2002,06,03,00,22,12.30
2002,06,03,00,23,12.30
2002,06,03,00,24,12.30
2002,06,03,00,25,12.30
2002,06,03,00,26,12.30
2002,06,03,00,27,12.30
2002,06,03,00,28,12.30
2002,06,03,00,29,12.30
2002,06,03,00,30,12.30
2002,06,03,00,31,12.30
2002,06,03,00,32,12.30
2002,06,03,00,33,12.30
2002,06,03,00,34,12.30
2002,06,03,00,35,12.30
2002,06,03,00,36,12.30
2002,06,03,00,37,12.30
2002,06,03,00,38,12.30
2002,06,03,00,39,12.30
2002,06,03,00,40,12.30
2002,06,03,00,41,12.30
2002,06,03,00,42,12.30
2002,06,03,00,43,12.30
2002,06,03,00,44,12.30
2002,06,03,00,45,12.30
2002,06,03,00,46,12.30
2002,06,03,00,47,12.30
2002,06,03,00,48,12.30
2002,06,03,00,49,12.30
2002,06,03,00,50,12.20
2002,06,03,00,51,12.20
2002,06,03,00,52,12.20
2002,06,03,00,53,12.20
2002,06,03,00,54,12.20
2002,06,03,00,55,12.20
2002,06,03,00,56,12.20
2002,06,03,00,57,12.20
2002,06,03,00,58,12.20
2002,06,03,00,59,12.20
2002,06,03,01,00,12.20
2002,06,03,01,01,12.10
2002,06,03,01,02,12.10
2002,06,03,01,03,12.10
2002,06,03,01,04,12.10
2002,06,03,01,05,12.10
2002,06,03,01,06,12.10
2002,06,03,01,07,12.10
2002,06,03,01,08,12.10
2002,06,03,01,09,12.10
2002,06,03,01,10,12.10
2002,06,03,01,11,12.10
2002,06,03,01,12,12.20
2002,06,03,01,13,12.20
2002,06,03,01,14,12.20
2002,06,03,01,15,12.30
2002,06,03,01,16,12.30
2002,06,03,01,17,12.30
2002,06,03,01,18,12.30
2002,06,03,01,19,12.30
2002,06,03,01,20,12.30
2002,06,03,01,21,12.30
2002,06,03,01,22,12.30
2002,06,03,01,23,12.30
2002,06,03,01,24,12.30
2002,06,03,01,25,12.30
2002,06,03,01,26,12.30
2002,06,03,01,27,12.30
2002,06,03,01,28,12.30
2002,06,03,01,29,12.30
2002,06,03,01,30,12.30
2002,06,03,01,31,12.30
2002,06,03,01,32,12.30
2002,06,03,01,33,12.30
2002,06,03,01,34,12.30
2002,06,03,01,35,12.30
2002,06,03,01,36,12.30
2002,06,03,01,37,12.30
2002,06,03,01,38,12.30
2002,06,03,01,39,12.30
2002,06,03,01,40,12.30
2002,06,03,01,41,12.30
2002,06,03,01,42,12.20
2002,06,03,01,43,12.20
2002,06,03,01,44,12.20
2002,06,03,01,45,12.20
2002,06,03,01,46,12.20
2002,06,03,01,47,12.20
2002,06,03,01,48,12.20
2002,06,03,01,49,12.20
2002,06,03,01,50,12.20
2002,06,03,01,51,12.20
2002,06,03,01,52,12.20
2002,06,03,01,53,12.20
2002,06,03,01,54,12.20
2002,06,03,01,55,12.10
2002,06,03,01,56,12.10
2002,06,03,01,57,12.10
2002,06,03,01,58,12.00
2002,06,03,01,59,12.00
2002,06,03,02,00,12.00
2002,06,03,02,01,11.90
2002,06,03,02,02,11.90
2002,06,03,02,03,11.80
2002,06,03,02,04,11.80
2002,06,03,02,05,11.70
2002,06,03,02,06,11.70
2002,06,03,02,07,11.60
2002,06,03,02,08,11.60
2002,06,03,02,09,11.60
2002,06,03,02,10,11.50
2002,06,03,02,11,11.40
2002,06,03,02,12,11.30
2002,06,03,02,13,11.20
2002,06,03,02,14,11.20
2002,06,03,02,15,11.10
2002,06,03,02,16,11.10
2002,06,03,02,17,11.10
2002,06,03,02,18,11.10
2002,06,03,02,19,11.10
2002,06,03,02,20,11.10
2002,06,03,02,21,11.10
2002,06,03,02,22,11.10
2002,06,03,02,23,11.10
2002,06,03,02,24,11.10
2002,06,03,02,25,11.10
2002,06,03,02,26,11.10
2002,06,03,02,27,11.10
2002,06,03,02,28,11.10
2002,06,03,02,29,11.10
2002,06,03,02,30,11.10
2002,06,03,02,31,11.10
2002,06,03,02,32,11.10
2002,06,03,02,33,11.10
2002,06,03,02,34,11.10
2002,06,03,02,35,11.10
2002,06,03,02,36,11.10
2002,06,03,02,37,11.10
2002,06,03,02,38,11.10
2002,06,03,02,39,11.10
2002,06,03,02,40,11.00
2002,06,03,02,41,10.90
2002,06,03,02,42,10.90
2002,06,03,02,43,10.90
2002,06,03,02,44,10.90
2002,06,03,02,45,10.90
2002,06,03,02,46,10.90
2002,06,03,02,47,10.90
2002,06,03,02,48,10.90
2002,06,03,02,49,10.90
2002,06,03,02,50,10.90
2002,06,03,02,51,10.90
2002,06,03,02,52,10.90
2002,06,03,02,53,10.90
2002,06,03,02,54,10.90
2002,06,03,02,55,10.90
2002,06,03,02,56,10.90
2002,06,03,02,57,10.90
2002,06,03,02,58,10.90
2002,06,03,02,59,10.90
2002,06,03,03,00,10.90
2002,06,03,03,01,10.90
2002,06,03,03,02,10.90
2002,06,03,03,03,10.90
2002,06,03,03,04,10.90
2002,06,03,03,05,10.90
2002,06,03,03,06,10.90
2002,06,03,03,07,10.90
2002,06,03,03,08,10.80
2002,06,03,03,09,10.80
2002,06,03,03,10,10.80
2002,06,03,03,11,10.80
2002,06,03,03,12,10.80
2002,06,03,03,13,10.80
2002,06,03,03,14,10.80
2002,06,03,03,15,10.80
2002,06,03,03,16,10.70
2002,06,03,03,17,10.70
2002,06,03,03,18,10.70
2002,06,03,03,19,10.70
2002,06,03,03,20,10.70
2002,06,03,03,21,10.70
2002,06,03,03,22,10.70
2002,06,03,03,23,10.70
2002,06,03,03,24,10.70
2002,06,03,03,25,10.60
2002,06,03,03,26,10.60
2002,06,03,03,27,10.60
2002,06,03,03,28,10.60
2002,06,03,03,29,10.60
2002,06,03,03,30,10.60
2002,06,03,03,31,10.60
2002,06,03,03,32,10.60
2002,06,03,03,33,10.60
2002,06,03,03,34,10.60
2002,06,03,03,35,10.60
2002,06,03,03,36,10.60
2002,06,03,03,37,10.60
2002,06,03,03,38,10.60
2002,06,03,03,39,10.50
2002,06,03,03,40,10.40
2002,06,03,03,41,10.40
2002,06,03,03,42,10.40
2002,06,03,03,43,10.40
2002,06,03,03,44,10.40
2002,06,03,03,45,10.40
2002,06,03,03,46,10.40
2002,06,03,03,47,10.40
2002,06,03,03,48,10.40
2002,06,03,03,49,10.40
2002,06,03,03,50,10.40
2002,06,03,03,51,10.40
2002,06,03,03,52,10.40
2002,06,03,03,53,10.40
2002,06,03,03,54,10.40
2002,06,03,03,55,10.40
2002,06,03,03,56,10.40
2002,06,03,03,57,10.30
2002,06,03,03,58,10.30
2002,06,03,03,59,10.30
2002,06,03,04,00,10.30
2002,06,03,04,01,10.30
2002,06,03,04,02,10.30
2002,06,03,04,03,10.30
2002,06,03,04,04,10.20
2002,06,03,04,05,10.20
2002,06,03,04,06,10.20
2002,06,03,04,07,10.20
2002,06,03,04,08,10.20
2002,06,03,04,09,10.20
2002,06,03,04,10,10.20
2002,06,03,04,11,10.20
2002,06,03,04,12,10.20
2002,06,03,04,13,10.20
2002,06,03,04,14,10.20
2002,06,03,04,15,10.20
2002,06,03,04,16,10.20
2002,06,03,04,17,10.20
2002,06,03,04,18,10.20
2002,06,03,04,19,10.10
2002,06,03,04,20,10.10
2002,06,03,04,21,10.10
2002,06,03,04,22,10.10
2002,06,03,04,23,10.10
2002,06,03,04,24,10.10
2002,06,03,04,25,10.10
2002,06,03,04,26,10.10
2002,06,03,04,27,10.10
2002,06,03,04,28,10.10
2002,06,03,04,29,10.10
2002,06,03,04,30,10.10
2002,06,03,04,31,10.10
2002,06,03,04,32,10.10
2002,06,03,04,33,10.10
2002,06,03,04,34,10.10
2002,06,03,04,35,10.10
2002,06,03,04,36,10.10
2002,06,03,04,37,10.10
2002,06,03,04,38,10.10
2002,06,03,04,39,10.20
2002,06,03,04,40,10.20
2002,06,03,04,41,10.20
2002,06,03,04,42,10.20
2002,06,03,04,43,10.20
2002,06,03,04,44,10.10
2002,06,03,04,45,10.10
2002,06,03,04,46,10.10
2002,06,03,04,47,10.10
2002,06,03,04,48,10.10
2002,06,03,04,49,10.10
2002,06,03,04,50,10.10
2002,06,03,04,51,10.10
2002,06,03,04,52,10.10
2002,06,03,04,53,10.10
2002,06,03,04,54,10.10
2002,06,03,04,55,10.10
2002,06,03,04,56,10.10
2002,06,03,04,57,10.00
2002,06,03,04,58,9.90
2002,06,03,04,59,9.90
2002,06,03,05,00,9.90
2002,06,03,05,01,9.90
2002,06,03,05,02,9.90
2002,06,03,05,03,9.90
2002,06,03,05,04,9.90
2002,06,03,05,05,9.90
2002,06,03,05,06,9.90
2002,06,03,05,07,9.90
2002,06,03,05,08,9.90
2002,06,03,05,09,9.90
2002,06,03,05,10,9.80
2002,06,03,05,11,9.80
2002,06,03,05,12,9.80
2002,06,03,05,13,9.80
2002,06,03,05,14,9.80
2002,06,03,05,15,9.80
2002,06,03,05,16,9.80
2002,06,03,05,17,9.80
2002,06,03,05,18,9.80
2002,06,03,05,19,9.70
2002,06,03,05,20,9.70
2002,06,03,05,21,9.70
2002,06,03,05,22,9.70
2002,06,03,05,23,9.70
2002,06,03,05,24,9.70
2002,06,03,05,25,9.70
2002,06,03,05,26,9.70
2002,06,03,05,27,9.70
2002,06,03,05,28,9.70
2002,06,03,05,29,9.70
2002,06,03,05,30,9.70
2002,06,03,05,31,9.70
2002,06,03,05,32,9.70
2002,06,03,05,33,9.70
2002,06,03,05,34,9.70
2002,06,03,05,35,9.70
2002,06,03,05,36,9.70
2002,06,03,05,37,9.70
2002,06,03,05,38,9.70
2002,06,03,05,39,9.70
2002,06,03,05,40,9.70
2002,06,03,05,41,9.70
2002,06,03,05,42,9.70
2002,06,03,05,43,9.80
2002,06,03,05,44,9.80
2002,06,03,05,45,9.90
2002,06,03,05,46,9.90
2002,06,03,05,47,9.90
2002,06,03,05,48,9.90
2002,06,03,05,49,9.90
2002,06,03,05,50,10.00
2002,06,03,05,51,10.10
2002,06,03,05,52,10.10
2002,06,03,05,53,10.10
2002,06,03,05,54,10.10
2002,06,03,05,55,10.20
2002,06,03,05,56,10.20
2002,06,03,05,57,10.30
2002,06,03,05,58,10.30
2002,06,03,05,59,10.40
2002,06,03,06,00,10.40
2002,06,03,06,01,10.40
2002,06,03,06,02,10.40
2002,06,03,06,03,10.40
2002,06,03,06,04,10.40
2002,06,03,06,05,10.40
2002,06,03,06,06,10.40
2002,06,03,06,07,10.50
2002,06,03,06,08,10.60
2002,06,03,06,09,10.60
2002,06,03,06,10,10.60
2002,06,03,06,11,10.60
2002,06,03,06,12,10.60
2002,06,03,06,13,10.60
2002,06,03,06,14,10.70
2002,06,03,06,15,10.70
2002,06,03,06,16,10.80
2002,06,03,06,17,10.80
2002,06,03,06,18,10.80
2002,06,03,06,19,10.90
2002,06,03,06,20,10.90
2002,06,03,06,21,10.90
2002,06,03,06,22,10.90
2002,06,03,06,23,10.90
2002,06,03,06,24,10.90
2002,06,03,06,25,11.00
2002,06,03,06,26,11.10
2002,06,03,06,27,11.10
2002,06,03,06,28,11.10
2002,06,03,06,29,11.10
2002,06,03,06,30,11.10
2002,06,03,06,31,11.10
2002,06,03,06,32,11.20
2002,06,03,06,33,11.30
2002,06,03,06,34,11.40
2002,06,03,06,35,11.40
2002,06,03,06,36,11.40
2002,06,03,06,37,11.40
2002,06,03,06,38,11.40
2002,06,03,06,39,11.40
2002,06,03,06,40,11.40
2002,06,03,06,41,11.40
2002,06,03,06,42,11.40
2002,06,03,06,43,11.40
2002,06,03,06,44,11.40
2002,06,03,06,45,11.40
2002,06,03,06,46,11.40
2002,06,03,06,47,11.40
2002,06,03,06,48,11.40
2002,06,03,06,49,11.40
2002,06,03,06,50,11.30
2002,06,03,06,51,11.30
2002,06,03,06,52,11.40
2002,06,03,06,53,11.40
2002,06,03,06,54,11.40
2002,06,03,06,55,11.40
2002,06,03,06,56,11.40
2002,06,03,06,57,11.30
2002,06,03,06,58,11.40
2002,06,03,06,59,11.40
2002,06,03,07,00,11.40
2002,06,03,07,01,11.40
2002,06,03,07,02,11.40
2002,06,03,07,03,11.40
2002,06,03,07,04,11.40
2002,06,03,07,05,11.40
2002,06,03,07,06,11.40
2002,06,03,07,07,11.40
2002,06,03,07,08,11.50
2002,06,03,07,09,11.60
2002,06,03,07,10,11.60
2002,06,03,07,11,11.70
2002,06,03,07,12,11.70
2002,06,03,07,13,11.80
2002,06,03,07,14,11.80
2002,06,03,07,15,11.80
2002,06,03,07,16,11.80
2002,06,03,07,17,11.80
2002,06,03,07,18,11.80
2002,06,03,07,19,11.80
2002,06,03,07,20,11.90
2002,06,03,07,21,11.90
2002,06,03,07,22,11.90
2002,06,03,07,23,12.00
2002,06,03,07,24,12.10
2002,06,03,07,25,12.10
2002,06,03,07,26,12.10
2002,06,03,07,27,12.20
2002,06,03,07,28,12.20
2002,06,03,07,29,12.30
2002,06,03,07,30,12.30
2002,06,03,07,31,12.40
2002,06,03,07,32,12.40
2002,06,03,07,33,12.40
2002,06,03,07,34,12.50
2002,06,03,07,35,12.60
2002,06,03,07,36,12.60
2002,06,03,07,37,12.70
2002,06,03,07,38,12.70
2002,06,03,07,39,12.80
2002,06,03,07,40,12.90
2002,06,03,07,41,12.90
2002,06,03,07,42,13.00
2002,06,03,07,43,13.10
2002,06,03,07,44,13.00
2002,06,03,07,45,13.10
2002,06,03,07,46,13.20
2002,06,03,07,47,13.20
2002,06,03,07,48,13.10
2002,06,03,07,49,13.10
2002,06,03,07,50,13.20
2002,06,03,07,51,13.20
2002,06,03,07,52,13.40
2002,06,03,07,53,13.50
2002,06,03,07,54,13.50
2002,06,03,07,55,13.60
2002,06,03,07,56,13.60
2002,06,03,07,57,13.60
2002,06,03,07,58,13.50
2002,06,03,07,59,13.50
2002,06,03,08,00,13.60
2002,06,03,08,01,13.50
2002,06,03,08,02,13.50
2002,06,03,08,03,13.50
2002,06,03,08,04,13.50
2002,06,03,08,05,13.60
2002,06,03,08,06,13.60
2002,06,03,08,07,13.70
2002,06,03,08,08,13.80
2002,06,03,08,09,13.90
2002,06,03,08,10,14.00
2002,06,03,08,11,14.00
2002,06,03,08,12,13.90
2002,06,03,08,13,13.90
2002,06,03,08,14,13.90
2002,06,03,08,15,13.70
2002,06,03,08,16,13.70
2002,06,03,08,17,13.70
2002,06,03,08,18,13.60
2002,06,03,08,19,13.60
2002,06,03,08,20,13.70
2002,06,03,08,21,13.80
2002,06,03,08,22,13.80
2002,06,03,08,23,13.70
2002,06,03,08,24,13.70
2002,06,03,08,25,13.60
2002,06,03,08,26,13.60
2002,06,03,08,27,13.70
2002,06,03,08,28,13.70
2002,06,03,08,29,13.70
2002,06,03,08,30,13.70
2002,06,03,08,31,13.70
2002,06,03,08,32,13.80
2002,06,03,08,33,13.80
2002,06,03,08,34,13.90
2002,06,03,08,35,14.10
2002,06,03,08,36,14.10
2002,06,03,08,37,14.00
2002,06,03,08,38,14.10
2002,06,03,08,39,14.10
2002,06,03,08,40,14.10
2002,06,03,08,41,14.00
2002,06,03,08,42,14.00
2002,06,03,08,43,13.90
2002,06,03,08,44,13.80
2002,06,03,08,45,13.90
2002,06,03,08,46,14.00
2002,06,03,08,47,14.10
2002,06,03,08,48,14.00
2002,06,03,08,49,14.00
2002,06,03,08,50,13.90
2002,06,03,08,51,13.80
2002,06,03,08,52,13.80
2002,06,03,08,53,13.80
2002,06,03,08,54,13.80
2002,06,03,08,55,13.70
2002,06,03,08,56,13.70
2002,06,03,08,57,13.80
2002,06,03,08,58,13.80
2002,06,03,08,59,13.70
2002,06,03,09,00,13.70
2002,06,03,09,01,13.70
2002,06,03,09,02,13.70
2002,06,03,09,03,13.60
2002,06,03,09,04,13.60
2002,06,03,09,05,13.60
2002,06,03,09,06,13.50
2002,06,03,09,07,13.40
2002,06,03,09,08,13.60
2002,06,03,09,09,13.70
2002,06,03,09,10,13.70
2002,06,03,09,11,13.70
2002,06,03,09,12,13.70
2002,06,03,09,13,13.70
2002,06,03,09,14,13.70
2002,06,03,09,15,13.70
2002,06,03,09,16,13.80
2002,06,03,09,17,13.80
2002,06,03,09,18,13.90
2002,06,03,09,19,13.90
2002,06,03,09,20,13.90
2002,06,03,09,21,13.80
2002,06,03,09,22,13.90
2002,06,03,09,23,13.90
2002,06,03,09,24,14.00
2002,06,03,09,25,14.00
2002,06,03,09,26,14.20
2002,06,03,09,27,14.20
2002,06,03,09,28,14.20
2002,06,03,09,29,14.20
2002,06,03,09,30,14.30
2002,06,03,09,31,14.30
2002,06,03,09,32,14.40
2002,06,03,09,33,14.40
2002,06,03,09,34,14.50
2002,06,03,09,35,14.60
2002,06,03,09,36,14.60
2002,06,03,09,37,14.70
2002,06,03,09,38,14.80
2002,06,03,09,39,15.00
2002,06,03,09,40,15.10
2002,06,03,09,41,15.20
2002,06,03,09,42,15.30
2002,06,03,09,43,15.30
2002,06,03,09,44,15.20
2002,06,03,09,45,15.40
2002,06,03,09,46,15.50
2002,06,03,09,47,15.50
2002,06,03,09,48,15.50
2002,06,03,09,49,15.50
2002,06,03,09,50,15.30
2002,06,03,09,51,15.30
2002,06,03,09,52,15.20
2002,06,03,09,53,15.10
2002,06,03,09,54,15.00
2002,06,03,09,55,15.00
2002,06,03,09,56,15.00
2002,06,03,09,57,15.00
2002,06,03,09,58,15.10
2002,06,03,09,59,15.00
2002,06,03,10,00,15.00
2002,06,03,10,01,15.00
2002,06,03,10,02,15.10
2002,06,03,10,03,15.20
2002,06,03,10,04,15.20
2002,06,03,10,05,15.20
2002,06,03,10,06,15.30
2002,06,03,10,07,15.30
2002,06,03,10,08,15.40
2002,06,03,10,09,15.50
2002,06,03,10,10,15.60
2002,06,03,10,11,15.60
2002,06,03,10,12,15.60
2002,06,03,10,13,15.60
2002,06,03,10,14,15.50
2002,06,03,10,15,15.30
2002,06,03,10,16,15.30
2002,06,03,10,17,15.40
2002,06,03,10,18,15.50
2002,06,03,10,19,15.50
2002,06,03,10,20,15.50
2002,06,03,10,21,15.50
2002,06,03,10,22,15.50
2002,06,03,10,23,15.60
2002,06,03,10,24,15.60
2002,06,03,10,25,15.60
2002,06,03,10,26,15.60
2002,06,03,10,27,15.70
2002,06,03,10,28,15.80
2002,06,03,10,29,15.80
2002,06,03,10,30,15.60
2002,06,03,10,31,15.70
2002,06,03,10,32,15.60
2002,06,03,10,33,15.50
2002,06,03,10,34,15.60
2002,06,03,10,35,15.60
2002,06,03,10,36,15.60
2002,06,03,10,37,15.50
2002,06,03,10,38,15.30
2002,06,03,10,39,15.10
2002,06,03,10,40,14.90
2002,06,03,10,41,14.90
2002,06,03,10,42,14.90
2002,06,03,10,43,14.80
2002,06,03,10,44,14.70
2002,06,03,10,45,14.60
2002,06,03,10,46,14.60
2002,06,03,10,47,14.60
2002,06,03,10,48,14.60
2002,06,03,10,49,14.60
2002,06,03,10,50,14.70
2002,06,03,10,51,14.60
2002,06,03,10,52,14.50
2002,06,03,10,53,14.50
2002,06,03,10,54,14.50
2002,06,03,10,55,14.50
2002,06,03,10,56,14.50
2002,06,03,10,57,14.30
2002,06,03,10,58,14.30
2002,06,03,10,59,14.50
2002,06,03,11,00,14.60
2002,06,03,11,01,14.70
2002,06,03,11,02,14.80
2002,06,03,11,03,15.00
2002,06,03,11,04,15.00
2002,06,03,11,05,15.10
2002,06,03,11,06,15.10
2002,06,03,11,07,15.10
2002,06,03,11,08,15.10
2002,06,03,11,09,15.10
2002,06,03,11,10,15.10
2002,06,03,11,11,15.20
2002,06,03,11,12,15.30
2002,06,03,11,13,15.40
2002,06,03,11,14,15.50
2002,06,03,11,15,15.50
2002,06,03,11,16,15.50
2002,06,03,11,17,15.60
2002,06,03,11,18,15.60
2002,06,03,11,19,15.60
2002,06,03,11,20,15.70
2002,06,03,11,21,15.80
2002,06,03,11,22,15.80
2002,06,03,11,23,15.80
2002,06,03,11,24,15.90
2002,06,03,11,25,16.10
2002,06,03,11,26,16.20
2002,06,03,11,27,16.30
2002,06,03,11,28,16.40
2002,06,03,11,29,16.40
2002,06,03,11,30,16.40
2002,06,03,11,31,16.40
2002,06,03,11,32,16.50
2002,06,03,11,33,16.60
2002,06,03,11,34,16.40
2002,06,03,11,35,16.30
2002,06,03,11,36,16.10
2002,06,03,11,37,16.00
2002,06,03,11,38,15.90
2002,06,03,11,39,15.70
2002,06,03,11,40,15.50
2002,06,03,11,41,15.50
2002,06,03,11,42,15.30
2002,06,03,11,43,15.20
2002,06,03,11,44,15.10
2002,06,03,11,45,15.00
2002,06,03,11,46,15.10
2002,06,03,11,47,15.10
2002,06,03,11,48,15.00
2002,06,03,11,49,15.10
2002,06,03,11,50,15.00
2002,06,03,11,51,15.00
2002,06,03,11,52,15.00
2002,06,03,11,53,15.00
2002,06,03,11,54,15.00
2002,06,03,11,55,15.00
2002,06,03,11,56,15.10
2002,06,03,11,57,15.10
2002,06,03,11,58,15.20
2002,06,03,11,59,15.40
2002,06,03,12,00,15.60
2002,06,03,12,01,15.80
2002,06,03,12,02,15.90
2002,06,03,12,03,15.90
2002,06,03,12,04,16.00
2002,06,03,12,05,15.90
2002,06,03,12,06,15.90
2002,06,03,12,07,16.00
2002,06,03,12,08,16.10
2002,06,03,12,09,16.10
2002,06,03,12,10,16.10
2002,06,03,12,11,16.20
2002,06,03,12,12,16.30
2002,06,03,12,13,16.30
2002,06,03,12,14,16.40
2002,06,03,12,15,16.20
2002,06,03,12,16,16.20
2002,06,03,12,17,15.90
2002,06,03,12,18,15.80
2002,06,03,12,19,15.60
2002,06,03,12,20,15.50
2002,06,03,12,21,15.50
2002,06,03,12,22,15.50
2002,06,03,12,23,15.40
2002,06,03,12,24,15.40
2002,06,03,12,25,15.50
2002,06,03,12,26,15.50
2002,06,03,12,27,15.50
2002,06,03,12,28,15.60
2002,06,03,12,29,15.60
2002,06,03,12,30,15.70
2002,06,03,12,31,15.70
2002,06,03,12,32,15.80
2002,06,03,12,33,15.90
2002,06,03,12,34,16.00
2002,06,03,12,35,16.10
2002,06,03,12,36,16.20
2002,06,03,12,37,16.10
2002,06,03,12,38,16.10
2002,06,03,12,39,16.00
2002,06,03,12,40,15.90
2002,06,03,12,41,15.80
2002,06,03,12,42,15.90
2002,06,03,12,43,15.90
2002,06,03,12,44,15.80
2002,06,03,12,45,15.80
2002,06,03,12,46,15.70
2002,06,03,12,47,15.60
2002,06,03,12,48,15.40
2002,06,03,12,49,15.50
2002,06,03,12,50,15.50
2002,06,03,12,51,15.50
2002,06,03,12,52,15.50
2002,06,03,12,53,15.50
2002,06,03,12,54,15.60
2002,06,03,12,55,15.50
2002,06,03,12,56,15.30
2002,06,03,12,57,15.20
2002,06,03,12,58,15.00
2002,06,03,12,59,14.90
2002,06,03,13,00,14.90
2002,06,03,13,01,14.90
2002,06,03,13,02,14.80
2002,06,03,13,03,14.80
2002,06,03,13,04,14.80
2002,06,03,13,05,14.80
2002,06,03,13,06,14.80
2002,06,03,13,07,14.80
2002,06,03,13,08,14.80
2002,06,03,13,09,14.80
2002,06,03,13,10,14.80
2002,06,03,13,11,14.90
2002,06,03,13,12,14.90
2002,06,03,13,13,14.90
2002,06,03,13,14,14.90
2002,06,03,13,15,14.80
2002,06,03,13,16,14.60
2002,06,03,13,17,14.60
2002,06,03,13,18,14.40
2002,06,03,13,19,14.50
2002,06,03,13,20,14.50
2002,06,03,13,21,14.50
2002,06,03,13,22,14.50
2002,06,03,13,23,14.60
2002,06,03,13,24,14.60
2002,06,03,13,25,14.60
2002,06,03,13,26,14.60
2002,06,03,13,27,14.70
2002,06,03,13,28,14.60
2002,06,03,13,29,14.70
2002,06,03,13,30,14.80
2002,06,03,13,31,14.90
2002,06,03,13,32,15.00
2002,06,03,13,33,15.00
2002,06,03,13,34,15.20
2002,06,03,13,35,15.40
2002,06,03,13,36,15.50
2002,06,03,13,37,15.60
2002,06,03,13,38,15.70
2002,06,03,13,39,15.80
2002,06,03,13,40,15.90
2002,06,03,13,41,16.00
2002,06,03,13,42,16.00
2002,06,03,13,43,15.90
2002,06,03,13,44,16.00
2002,06,03,13,45,16.00
2002,06,03,13,46,16.00
2002,06,03,13,47,15.90
2002,06,03,13,48,15.90
2002,06,03,13,49,15.90
2002,06,03,13,50,15.90
2002,06,03,13,51,15.90
2002,06,03,13,52,15.90
2002,06,03,13,53,15.90
2002,06,03,13,54,16.00
2002,06,03,13,55,16.10
2002,06,03,13,56,16.10
2002,06,03,13,57,16.20
2002,06,03,13,58,16.20
2002,06,03,13,59,16.40
2002,06,03,14,00,16.40
2002,06,03,14,01,16.50
2002,06,03,14,02,16.70
2002,06,03,14,03,16.60
2002,06,03,14,04,16.70
2002,06,03,14,05,16.80
2002,06,03,14,06,17.10
2002,06,03,14,07,17.30
2002,06,03,14,08,17.50
2002,06,03,14,09,17.80
2002,06,03,14,10,17.90
2002,06,03,14,11,18.00
2002,06,03,14,12,18.10
2002,06,03,14,13,18.20
2002,06,03,14,14,18.40
2002,06,03,14,15,18.60
2002,06,03,14,16,18.80
2002,06,03,14,17,18.80
2002,06,03,14,18,18.70
2002,06,03,14,19,18.70
2002,06,03,14,20,18.80
2002,06,03,14,21,18.70
2002,06,03,14,22,18.70
2002,06,03,14,23,18.70
2002,06,03,14,24,18.80
2002,06,03,14,25,18.90
2002,06,03,14,26,18.90
2002,06,03,14,27,18.70
2002,06,03,14,28,18.60
2002,06,03,14,29,18.60
2002,06,03,14,30,18.40
2002,06,03,14,31,18.50
2002,06,03,14,32,18.50
2002,06,03,14,33,18.30
2002,06,03,14,34,18.20
2002,06,03,14,35,18.10
2002,06,03,14,36,18.10
2002,06,03,14,37,18.20
2002,06,03,14,38,18.10
2002,06,03,14,39,18.10
2002,06,03,14,40,18.00
2002,06,03,14,41,18.10
2002,06,03,14,42,18.00
2002,06,03,14,43,17.90
2002,06,03,14,44,18.10
2002,06,03,14,45,18.10
2002,06,03,14,46,18.10
2002,06,03,14,47,18.10
2002,06,03,14,48,18.20
2002,06,03,14,49,18.10
2002,06,03,14,50,18.20
2002,06,03,14,51,18.20
2002,06,03,14,52,18.40
2002,06,03,14,53,18.50
2002,06,03,14,54,18.80
2002,06,03,14,55,19.00
2002,06,03,14,56,19.10
2002,06,03,14,57,19.10
2002,06,03,14,58,19.40
2002,06,03,14,59,19.50
2002,06,03,15,00,19.60
2002,06,03,15,01,19.80
2002,06,03,15,02,19.90
2002,06,03,15,03,19.90
2002,06,03,15,04,20.00
2002,06,03,15,05,19.90
2002,06,03,15,06,19.80
2002,06,03,15,07,19.70
2002,06,03,15,08,19.80
2002,06,03,15,09,19.90
2002,06,03,15,10,19.90
2002,06,03,15,11,20.00
2002,06,03,15,12,20.10
2002,06,03,15,13,20.00
2002,06,03,15,14,20.20
2002,06,03,15,15,20.40
2002,06,03,15,16,20.30
2002,06,03,15,17,20.40
2002,06,03,15,18,20.30
2002,06,03,15,19,20.10
2002,06,03,15,20,20.10
2002,06,03,15,21,19.90
2002,06,03,15,22,19.90
2002,06,03,15,23,19.70
2002,06,03,15,24,19.60
2002,06,03,15,25,19.60
2002,06,03,15,26,19.60
2002,06,03,15,27,19.60
2002,06,03,15,28,19.60
2002,06,03,15,29,19.70
2002,06,03,15,30,19.80
2002,06,03,15,31,19.80
2002,06,03,15,32,19.60
2002,06,03,15,33,19.60
2002,06,03,15,34,19.40
2002,06,03,15,35,19.40
2002,06,03,15,36,19.40
2002,06,03,15,37,19.20
2002,06,03,15,38,19.30
2002,06,03,15,39,19.30
2002,06,03,15,40,19.10
2002,06,03,15,41,18.70
2002,06,03,15,42,18.60
2002,06,03,15,43,18.50
2002,06,03,15,44,18.30
2002,06,03,15,45,18.10
2002,06,03,15,46,18.00
2002,06,03,15,47,17.80
2002,06,03,15,48,17.80
2002,06,03,15,49,17.70
2002,06,03,15,50,17.70
2002,06,03,15,51,17.90
2002,06,03,15,52,17.90
2002,06,03,15,53,18.20
2002,06,03,15,54,18.30
2002,06,03,15,55,18.40
2002,06,03,15,56,18.50
2002,06,03,15,57,18.60
2002,06,03,15,58,18.80
2002,06,03,15,59,19.00
2002,06,03,16,00,19.00
2002,06,03,16,01,19.10
2002,06,03,16,02,19.10
2002,06,03,16,03,19.20
2002,06,03,16,04,19.20
2002,06,03,16,05,19.30
2002,06,03,16,06,19.40
2002,06,03,16,07,19.40
2002,06,03,16,08,19.40
2002,06,03,16,09,19.50
2002,06,03,16,10,19.40
2002,06,03,16,11,19.40
2002,06,03,16,12,19.50
2002,06,03,16,13,19.30
2002,06,03,16,14,19.20
2002,06,03,16,15,19.20
2002,06,03,16,16,19.10
2002,06,03,16,17,19.10
2002,06,03,16,18,19.10
2002,06,03,16,19,19.20
2002,06,03,16,20,19.30
2002,06,03,16,21,19.30
2002,06,03,16,22,19.30
2002,06,03,16,23,19.30
2002,06,03,16,24,19.40
2002,06,03,16,25,19.40
2002,06,03,16,26,19.40
2002,06,03,16,27,19.40
2002,06,03,16,28,19.40
2002,06,03,16,29,19.50
2002,06,03,16,30,19.60
2002,06,03,16,31,19.60
2002,06,03,16,32,19.60
2002,06,03,16,33,19.50
2002,06,03,16,34,19.50
2002,06,03,16,35,19.50
2002,06,03,16,36,19.60
2002,06,03,16,37,19.60
2002,06,03,16,38,19.60
2002,06,03,16,39,19.60
2002,06,03,16,40,19.50
2002,06,03,16,41,19.40
2002,06,03,16,42,19.40
2002,06,03,16,43,19.40
2002,06,03,16,44,19.30
2002,06,03,16,45,19.30
2002,06,03,16,46,19.40
2002,06,03,16,47,19.50
2002,06,03,16,48,19.60
2002,06,03,16,49,19.70
2002,06,03,16,50,19.90
2002,06,03,16,51,19.90
2002,06,03,16,52,19.80
2002,06,03,16,53,19.60
2002,06,03,16,54,19.60
2002,06,03,16,55,19.60
2002,06,03,16,56,19.60
2002,06,03,16,57,19.50
2002,06,03,16,58,19.40
2002,06,03,16,59,19.40
2002,06,03,17,00,19.40
2002,06,03,17,01,19.30
2002,06,03,17,02,19.10
2002,06,03,17,03,19.30
2002,06,03,17,04,19.20
2002,06,03,17,05,19.10
2002,06,03,17,06,19.00
2002,06,03,17,07,19.00
2002,06,03,17,08,19.00
2002,06,03,17,09,19.00
2002,06,03,17,10,19.10
2002,06,03,17,11,19.10
2002,06,03,17,12,19.10
2002,06,03,17,13,19.10
2002,06,03,17,14,19.10
2002,06,03,17,15,19.20
2002,06,03,17,16,19.30
2002,06,03,17,17,19.20
2002,06,03,17,18,19.30
2002,06,03,17,19,19.30
2002,06,03,17,20,19.40
2002,06,03,17,21,19.20